Flag for Japan Weather past 2 weeks in Sendai, Japan

Now
66 °F

Partly cloudy.


Feels Like: 66 °F
Forecast: 62 / 76 °F
Wind: 2 mph from South

Location: Sendai Airport

Current Time: Jul 6, 2015 at 5:18:05 AM

Latest Report: Jul 5, 2015 at 9:00 PM


Visibility: N/A

Pressure: 29.89 "Hg

Humidity: 94%

Dew point: 64 °F

Location of SendaiLocation

Historic Weather in Sendai — Graph

°F

Sendai temperature yesterday

Maximum temperature yesterday: 72 °F (at 9:00 AM)
Minimum temperature yesterday: 66 °F (at 8:00 PM)
Average temperature yesterday: 69 °F

Past Weeks' High & Low Weather Summary

 TemperatureHumidityPressure
High79 °F (Jul 2, 2:00 PM)100% (Jun 27, 6:00 AM)29.92 "Hg (Jun 27, 6:00 AM)
Low57 °F (Jun 29, 6:00 AM)58% (Jul 2, 2:00 PM)29.27 "Hg (Jul 1, 3:00 PM)
Average70 °F84%29.70 "Hg
* Reported Jun 20 9:00 PM — Jul 5 9:00 PM, Sendai, Weather by CustomWeather, © 2015

Note: Actual official high and low records may vary slightly from our data, if they occured in-between our weather recording intervals... More about our weather records

Advertising

Sendai weather history for previous 24 hours

 ConditionsComfort  
Time TempWeatherWind HumidityBarometerVisibility
9:00 PM
Sun, Jul 5
66 °FPartly cloudy.2 mph94%29.89 "HgN/A
8:00 PM66 °FPartly cloudy.3 mph94%29.86 "HgN/A
7:00 PM68 °FBroken clouds.3 mph88%29.86 "HgN/A
6:00 PM68 °FBroken clouds.5 mph88%29.86 "HgN/A
5:00 PM70 °FBroken clouds.5 mph83%29.86 "HgN/A
4:00 PM68 °FPartly sunny.6 mph88%29.86 "HgN/A
3:00 PM70 °FBroken clouds.7 mph83%29.86 "HgN/A
2:00 PM70 °FPartly sunny.6 mph83%29.86 "HgN/A
1:00 PM70 °FBroken clouds.6 mph83%29.86 "HgN/A
12:00 PM72 °FPartly sunny.9 mph78%29.86 "HgN/A
11:00 AM70 °FBroken clouds.7 mph83%29.89 "HgN/A
10:00 AM70 °FBroken clouds.7 mph83%29.86 "Hg5 mi
9:00 AM72 °FPartly sunny.6 mph78%29.86 "HgN/A
8:00 AM70 °FPartly sunny.6 mph78%29.86 "HgN/A
7:00 AM68 °FPartly sunny.3 mph88%29.86 "HgN/A
6:00 AM68 °FLight rain. Broken clouds.5 mph94%29.86 "Hg5 mi
Weather by CustomWeather, © 2015

See weather overviewHow to use our weather pages